Weather History for KPSM - November, 2012

Change the Weather History Date:

Monday, November 19, 2012

  Actual Average Record
Temperature  
Mean Temperature 36 °F -  
Max Temperature 47 °F 45 °F 70 °F (1991)
Min Temperature 25 °F 30 °F 17 °F (2008)
Degree Days  
Heating Degree Days 29    
Moisture  
Dew Point 26 °F    
Average Humidity 73    
Maximum Humidity 97    
Minimum Humidity 46    
Precipitation  
Precipitation 0.00 in - - ()
Sea Level Pressure  
Sea Level Pressure 30.47 in    
Wind  
Wind Speed 5 mph (NW)    
Max Wind Speed 7 mph    
Max Gust Speed -    
Visibility 10 miles    
Events Fog    
Averages and records for this station are not official NWS values.
T = Trace of Precipitation, MM = Missing Value Source: NWS Daily Summary

Daily Weather History Graph

Daily Weather History Graph

Search for Another Location

Airport or City:

Trip Planner

Search our weather history database for the weather conditions in past years. The results will help you decide how hot, cold, wet, or windy it might be!

Date:

Astronomy

Nov. 19, 2012 Rise Set
Actual Time 6:41 AM EST 4:15 PM EST
Civil Twilight 6:10 AM EST 4:46 PM EST
Nautical Twilight 5:35 AM EST 5:21 PM EST
Astronomical Twilight 5:02 AM EST 5:55 PM EST
Moon 11:39 AM EST (11/19) 10:43 PM EST (11/19)
Length of Visible Light 10h 36m
Length of Day
9h 34m
Waxing Crescent, 40% of the Moon is Illuminated
Nov 19
Waxing Crescent
Nov 20
First Quarter
Nov 28
Full
Dec 6
Last Quarter
Dec 13
New

Hourly Weather History & Observations

Time (EST) Temp. Windchill Dew Point Humidity Pressure Visibility Wind Dir Wind Speed Gust Speed Precip Events Conditions
12:55 AM 25.7 °F 18.0 °F 18.7 °F 75% 30.63 in 10.0 mi WNW 6.9 mph - N/A   Partly Cloudy
1:55 AM 26.8 °F 20.2 °F 18.7 °F 72% 30.61 in 10.0 mi NNW 5.8 mph - N/A   Partly Cloudy
2:55 AM 26.2 °F 20.7 °F 18.9 °F 74% 30.60 in 10.0 mi WNW 4.6 mph - N/A   Clear
3:55 AM 28.0 °F 20.8 °F 20.8 °F 74% 30.59 in 10.0 mi NW 6.9 mph - N/A   Mostly Cloudy
4:36 AM 26.6 °F 19.1 °F 19.4 °F 74% 30.58 in 10.0 mi NNW 6.9 mph - N/A   Scattered Clouds
4:55 AM 26.4 °F 20.9 °F 18.5 °F 72% 30.57 in 10.0 mi North 4.6 mph - N/A   Partly Cloudy
5:55 AM 26.2 °F 20.7 °F 18.1 °F 71% 30.57 in 10.0 mi NNW 4.6 mph - N/A   Mostly Cloudy
6:55 AM 26.6 °F 19.1 °F 18.1 °F 70% 30.57 in 10.0 mi NW 6.9 mph - N/A   Mostly Cloudy
7:55 AM 32.2 °F 25.8 °F 20.3 °F 62% 30.56 in 10.0 mi NNW 6.9 mph - N/A   Scattered Clouds
8:55 AM 36.5 °F 32.7 °F 21.2 °F 54% 30.55 in 10.0 mi NW 4.6 mph - N/A   Partly Cloudy
9:55 AM 40.6 °F 36.0 °F 21.9 °F 47% 30.53 in 10.0 mi North 6.9 mph - N/A   Partly Cloudy
10:55 AM 45.0 °F 43.5 °F 25.2 °F 46% 30.50 in 10.0 mi Variable 3.5 mph - N/A   Partly Cloudy
11:55 AM 46.6 °F - 30.7 °F 54% 30.47 in 10.0 mi Calm Calm - N/A   Scattered Clouds
12:55 PM 47.7 °F - 32.5 °F 56% 30.45 in 10.0 mi East 3.5 mph - N/A   Mostly Cloudy
1:55 PM 47.5 °F - 32.5 °F 56% 30.41 in 10.0 mi Variable 5.8 mph - N/A   Mostly Cloudy
2:55 PM 45.3 °F 41.6 °F 34.0 °F 65% 30.41 in 10.0 mi ESE 6.9 mph - N/A   Scattered Clouds
3:55 PM 43.0 °F 39.5 °F 33.8 °F 70% 30.40 in 10.0 mi ESE 5.8 mph - N/A   Scattered Clouds
4:55 PM 40.5 °F - 33.8 °F 77% 30.38 in 10.0 mi Calm Calm - N/A   Partly Cloudy
5:55 PM 37.6 °F - 34.2 °F 87% 30.38 in 10.0 mi Calm Calm - N/A   Partly Cloudy
6:55 PM 33.4 °F - 31.5 °F 92% 30.37 in 10.0 mi Calm Calm - N/A   Partly Cloudy
7:55 PM 34.5 °F 31.6 °F 33.3 °F 95% 30.35 in 10.0 mi WNW 3.5 mph - N/A   Clear
8:55 PM 32.9 °F 29.8 °F 31.8 °F 96% 30.33 in 8.0 mi WNW 3.5 mph - N/A Fog Patches of Fog
9:55 PM 31.8 °F 28.5 °F 31.1 °F 97% 30.31 in 10.0 mi WNW 3.5 mph - N/A   Clear
10:55 PM 30.4 °F 26.9 °F 29.5 °F 96% 30.29 in 8.0 mi WNW 3.5 mph - N/A Fog Patches of Fog
11:55 PM 28.9 °F - 28.2 °F 97% 30.28 in 8.0 mi Calm Calm - N/A Fog Patches of Fog